Date_Time,Julian_Date,Latitude,Longitude,Instrument_Depth,Water_Temperature
(yyyy-mm-dd hh:mn:ss UTC),(JD),(+ deg. North),(+ deg. East),(m),(deg. C)
1980-10-20 17:50:00 UTC,2444533.243056,27.9056,-93.7647,0520,26.6000
1980-10-20 18:10:00 UTC,2444533.256944,27.9056,-93.7647,0520,26.6000
1980-10-20 18:30:00 UTC,2444533.270833,27.9056,-93.7647,0520,26.8000
1980-10-20 18:50:00 UTC,2444533.284722,27.9056,-93.7647,0520,26.8000
1980-10-20 19:10:00 UTC,2444533.298611,27.9056,-93.7647,0520,26.5000
1980-10-20 19:30:00 UTC,2444533.312500,27.9056,-93.7647,0520,26.3000
1980-10-20 19:50:00 UTC,2444533.326389,27.9056,-93.7647,0520,26.5000
1980-10-20 20:10:00 UTC,2444533.340278,27.9056,-93.7647,0520,26.5000
1980-10-20 20:30:00 UTC,2444533.354167,27.9056,-93.7647,0520,26.6000
1980-10-20 20:50:00 UTC,2444533.368056,27.9056,-93.7647,0520,26.5000
1980-10-20 21:10:00 UTC,2444533.381944,27.9056,-93.7647,0520,26.5000
1980-10-20 21:30:00 UTC,2444533.395833,27.9056,-93.7647,0520,26.5000
1980-10-20 21:50:00 UTC,2444533.409722,27.9056,-93.7647,0520,26.5000
1980-10-20 22:10:00 UTC,2444533.423611,27.9056,-93.7647,0520,26.5000
1980-10-20 22:30:00 UTC,2444533.437500,27.9056,-93.7647,0520,26.3000
1980-10-20 22:50:00 UTC,2444533.451389,27.9056,-93.7647,0520,26.5000
1980-10-20 23:10:00 UTC,2444533.465278,27.9056,-93.7647,0520,26.5000
1980-10-20 23:30:00 UTC,2444533.479167,27.9056,-93.7647,0520,26.5000
1980-10-20 23:50:00 UTC,2444533.493056,27.9056,-93.7647,0520,26.3000
1980-10-21 00:10:00 UTC,2444533.506944,27.9056,-93.7647,0520,26.6000
1980-10-21 00:30:00 UTC,2444533.520833,27.9056,-93.7647,0520,27.1000
1980-10-21 00:50:00 UTC,2444533.534722,27.9056,-93.7647,0520,27.0000
1980-10-21 01:10:00 UTC,2444533.548611,27.9056,-93.7647,0520,27.1000
1980-10-21 01:30:00 UTC,2444533.562500,27.9056,-93.7647,0520,27.1000
1980-10-21 01:50:00 UTC,2444533.576389,27.9056,-93.7647,0520,27.1000
1980-10-21 02:10:00 UTC,2444533.590278,27.9056,-93.7647,0520,27.1000
1980-10-21 02:30:00 UTC,2444533.604167,27.9056,-93.7647,0520,27.1000
1980-10-21 02:50:00 UTC,2444533.618056,27.9056,-93.7647,0520,27.3000
1980-10-21 03:10:00 UTC,2444533.631944,27.9056,-93.7647,0520,27.3000
1980-10-21 03:30:00 UTC,2444533.645833,27.9056,-93.7647,0520,27.5000
1980-10-21 03:50:00 UTC,2444533.659722,27.9056,-93.7647,0520,27.5000
1980-10-21 04:10:00 UTC,2444533.673611,27.9056,-93.7647,0520,27.6000
1980-10-21 04:30:00 UTC,2444533.687500,27.9056,-93.7647,0520,27.6000
1980-10-21 04:50:00 UTC,2444533.701389,27.9056,-93.7647,0520,27.6000
1980-10-21 05:10:00 UTC,2444533.715278,27.9056,-93.7647,0520,27.6000
1980-10-21 05:30:00 UTC,2444533.729167,27.9056,-93.7647,0520,27.6000
1980-10-21 05:50:00 UTC,2444533.743056,27.9056,-93.7647,0520,27.8000
1980-10-21 06:10:00 UTC,2444533.756944,27.9056,-93.7647,0520,27.6000
1980-10-21 06:30:00 UTC,2444533.770833,27.9056,-93.7647,0520,27.6000
1980-10-21 06:50:00 UTC,2444533.784722,27.9056,-93.7647,0520,27.6000
1980-10-21 07:10:00 UTC,2444533.798611,27.9056,-93.7647,0520,27.6000
1980-10-21 07:30:00 UTC,2444533.812500,27.9056,-93.7647,0520,27.6000
1980-10-21 07:50:00 UTC,2444533.826389,27.9056,-93.7647,0520,27.6000
1980-10-21 08:10:00 UTC,2444533.840278,27.9056,-93.7647,0520,27.6000
1980-10-21 08:30:00 UTC,2444533.854167,27.9056,-93.7647,0520,27.6000
1980-10-21 08:50:00 UTC,2444533.868056,27.9056,-93.7647,0520,27.6000
1980-10-21 09:10:00 UTC,2444533.881944,27.9056,-93.7647,0520,27.6000
1980-10-21 09:30:00 UTC,2444533.895833,27.9056,-93.7647,0520,27.6000
1980-10-21 09:50:00 UTC,2444533.909722,27.9056,-93.7647,0520,27.6000
1980-10-21 10:10:00 UTC,2444533.923611,27.9056,-93.7647,0520,27.6000
1980-10-21 10:30:00 UTC,2444533.937500,27.9056,-93.7647,0520,27.6000
1980-10-21 10:50:00 UTC,2444533.951389,27.9056,-93.7647,0520,27.6000
1980-10-21 11:10:00 UTC,2444533.965278,27.9056,-93.7647,0520,27.6000
1980-10-21 11:30:00 UTC,2444533.979167,27.9056,-93.7647,0520,27.6000
1980-10-21 11:50:00 UTC,2444533.993056,27.9056,-93.7647,0520,27.5000
1980-10-21 12:10:00 UTC,2444534.006944,27.9056,-93.7647,0520,27.5000
1980-10-21 12:30:00 UTC,2444534.020833,27.9056,-93.7647,0520,27.5000
1980-10-21 12:50:00 UTC,2444534.034722,27.9056,-93.7647,0520,27.5000
1980-10-21 13:10:00 UTC,2444534.048611,27.9056,-93.7647,0520,27.3000
1980-10-21 13:30:00 UTC,2444534.062500,27.9056,-93.7647,0520,27.3000
1980-10-21 13:50:00 UTC,2444534.076389,27.9056,-93.7647,0520,27.3000
1980-10-21 14:10:00 UTC,2444534.090278,27.9056,-93.7647,0520,27.3000
1980-10-21 14:30:00 UTC,2444534.104167,27.9056,-93.7647,0520,27.3000
1980-10-21 14:50:00 UTC,2444534.118056,27.9056,-93.7647,0520,27.3000
1980-10-21 15:10:00 UTC,2444534.131944,27.9056,-93.7647,0520,27.3000
1980-10-21 15:30:00 UTC,2444534.145833,27.9056,-93.7647,0520,27.3000
1980-10-21 15:50:00 UTC,2444534.159722,27.9056,-93.7647,0520,27.3000
1980-10-21 16:10:00 UTC,2444534.173611,27.9056,-93.7647,0520,27.3000
1980-10-21 16:30:00 UTC,2444534.187500,27.9056,-93.7647,0520,27.3000
1980-10-21 16:50:00 UTC,2444534.201389,27.9056,-93.7647,0520,27.3000
1980-10-21 17:10:00 UTC,2444534.215278,27.9056,-93.7647,0520,27.3000
1980-10-21 17:30:00 UTC,2444534.229167,27.9056,-93.7647,0520,27.3000
1980-10-21 17:50:00 UTC,2444534.243056,27.9056,-93.7647,0520,27.3000
1980-10-21 18:10:00 UTC,2444534.256944,27.9056,-93.7647,0520,27.3000
1980-10-21 18:30:00 UTC,2444534.270833,27.9056,-93.7647,0520,27.3000
1980-10-21 18:50:00 UTC,2444534.284722,27.9056,-93.7647,0520,27.3000
1980-10-21 19:10:00 UTC,2444534.298611,27.9056,-93.7647,0520,27.3000
1980-10-21 19:30:00 UTC,2444534.312500,27.9056,-93.7647,0520,27.3000
1980-10-21 19:50:00 UTC,2444534.326389,27.9056,-93.7647,0520,27.3000
1980-10-21 20:10:00 UTC,2444534.340278,27.9056,-93.7647,0520,27.3000
1980-10-21 20:30:00 UTC,2444534.354167,27.9056,-93.7647,0520,27.3000
1980-10-21 20:50:00 UTC,2444534.368056,27.9056,-93.7647,0520,27.3000
1980-10-21 21:10:00 UTC,2444534.381944,27.9056,-93.7647,0520,27.3000
1980-10-21 21:30:00 UTC,2444534.395833,27.9056,-93.7647,0520,27.3000
1980-10-21 21:50:00 UTC,2444534.409722,27.9056,-93.7647,0520,27.3000
1980-10-21 22:10:00 UTC,2444534.423611,27.9056,-93.7647,0520,27.3000
1980-10-21 22:30:00 UTC,2444534.437500,27.9056,-93.7647,0520,27.3000
1980-10-21 22:50:00 UTC,2444534.451389,27.9056,-93.7647,0520,27.3000
1980-10-21 23:10:00 UTC,2444534.465278,27.9056,-93.7647,0520,27.3000
1980-10-21 23:30:00 UTC,2444534.479167,27.9056,-93.7647,0520,27.3000
1980-10-21 23:50:00 UTC,2444534.493056,27.9056,-93.7647,0520,27.3000
1980-10-22 00:10:00 UTC,2444534.506944,27.9056,-93.7647,0520,27.1000
1980-10-22 00:30:00 UTC,2444534.520833,27.9056,-93.7647,0520,27.1000
1980-10-22 00:50:00 UTC,2444534.534722,27.9056,-93.7647,0520,27.0000
1980-10-22 01:10:00 UTC,2444534.548611,27.9056,-93.7647,0520,26.8000
1980-10-22 01:30:00 UTC,2444534.562500,27.9056,-93.7647,0520,26.8000
1980-10-22 01:50:00 UTC,2444534.576389,27.9056,-93.7647,0520,26.8000
1980-10-22 02:10:00 UTC,2444534.590278,27.9056,-93.7647,0520,26.6000
1980-10-22 02:30:00 UTC,2444534.604167,27.9056,-93.7647,0520,26.5000
1980-10-22 02:50:00 UTC,2444534.618056,27.9056,-93.7647,0520,26.5000
1980-10-22 03:10:00 UTC,2444534.631944,27.9056,-93.7647,0520,26.1000
1980-10-22 03:30:00 UTC,2444534.645833,27.9056,-93.7647,0520,26.1000
1980-10-22 03:50:00 UTC,2444534.659722,27.9056,-93.7647,0520,26.3000
1980-10-22 04:10:00 UTC,2444534.673611,27.9056,-93.7647,0520,26.3000
1980-10-22 04:30:00 UTC,2444534.687500,27.9056,-93.7647,0520,26.3000
1980-10-22 04:50:00 UTC,2444534.701389,27.9056,-93.7647,0520,26.1000
1980-10-22 05:10:00 UTC,2444534.715278,27.9056,-93.7647,0520,26.1000
1980-10-22 05:30:00 UTC,2444534.729167,27.9056,-93.7647,0520,26.1000
1980-10-22 05:50:00 UTC,2444534.743056,27.9056,-93.7647,0520,26.3000
1980-10-22 06:10:00 UTC,2444534.756944,27.9056,-93.7647,0520,26.5000
1980-10-22 06:30:00 UTC,2444534.770833,27.9056,-93.7647,0520,26.6000
1980-10-22 06:50:00 UTC,2444534.784722,27.9056,-93.7647,0520,26.6000
1980-10-22 07:10:00 UTC,2444534.798611,27.9056,-93.7647,0520,26.6000
1980-10-22 07:30:00 UTC,2444534.812500,27.9056,-93.7647,0520,26.6000
1980-10-22 07:50:00 UTC,2444534.826389,27.9056,-93.7647,0520,26.8000
1980-10-22 08:10:00 UTC,2444534.840278,27.9056,-93.7647,0520,27.0000
1980-10-22 08:30:00 UTC,2444534.854167,27.9056,-93.7647,0520,27.1000
1980-10-22 08:50:00 UTC,2444534.868056,27.9056,-93.7647,0520,27.3000
1980-10-22 09:10:00 UTC,2444534.881944,27.9056,-93.7647,0520,27.1000
1980-10-22 09:30:00 UTC,2444534.895833,27.9056,-93.7647,0520,27.3000
1980-10-22 09:50:00 UTC,2444534.909722,27.9056,-93.7647,0520,27.1000
1980-10-22 10:10:00 UTC,2444534.923611,27.9056,-93.7647,0520,27.1000
1980-10-22 10:30:00 UTC,2444534.937500,27.9056,-93.7647,0520,27.1000
1980-10-22 10:50:00 UTC,2444534.951389,27.9056,-93.7647,0520,27.1000
1980-10-22 11:10:00 UTC,2444534.965278,27.9056,-93.7647,0520,27.1000
1980-10-22 11:30:00 UTC,2444534.979167,27.9056,-93.7647,0520,27.1000
1980-10-22 11:50:00 UTC,2444534.993056,27.9056,-93.7647,0520,27.1000
1980-10-22 12:10:00 UTC,2444535.006944,27.9056,-93.7647,0520,27.1000
1980-10-22 12:30:00 UTC,2444535.020833,27.9056,-93.7647,0520,27.1000
1980-10-22 12:50:00 UTC,2444535.034722,27.9056,-93.7647,0520,27.1000
1980-10-22 13:10:00 UTC,2444535.048611,27.9056,-93.7647,0520,27.1000
1980-10-22 13:30:00 UTC,2444535.062500,27.9056,-93.7647,0520,27.1000
1980-10-22 13:50:00 UTC,2444535.076389,27.9056,-93.7647,0520,27.1000
1980-10-22 14:10:00 UTC,2444535.090278,27.9056,-93.7647,0520,27.3000
1980-10-22 14:30:00 UTC,2444535.104167,27.9056,-93.7647,0520,27.3000
1980-10-22 14:50:00 UTC,2444535.118056,27.9056,-93.7647,0520,27.3000
1980-10-22 15:10:00 UTC,2444535.131944,27.9056,-93.7647,0520,27.3000
1980-10-22 15:30:00 UTC,2444535.145833,27.9056,-93.7647,0520,27.3000
1980-10-22 15:50:00 UTC,2444535.159722,27.9056,-93.7647,0520,27.3000
1980-10-22 16:10:00 UTC,2444535.173611,27.9056,-93.7647,0520,27.3000
1980-10-22 16:30:00 UTC,2444535.187500,27.9056,-93.7647,0520,27.1000
1980-10-22 16:50:00 UTC,2444535.201389,27.9056,-93.7647,0520,26.8000
1980-10-22 17:10:00 UTC,2444535.215278,27.9056,-93.7647,0520,26.8000
1980-10-22 17:30:00 UTC,2444535.229167,27.9056,-93.7647,0520,27.0000
1980-10-22 17:50:00 UTC,2444535.243056,27.9056,-93.7647,0520,27.1000
1980-10-22 18:10:00 UTC,2444535.256944,27.9056,-93.7647,0520,27.1000
1980-10-22 18:30:00 UTC,2444535.270833,27.9056,-93.7647,0520,27.1000
1980-10-22 18:50:00 UTC,2444535.284722,27.9056,-93.7647,0520,27.1000
1980-10-22 19:10:00 UTC,2444535.298611,27.9056,-93.7647,0520,27.1000
1980-10-22 19:30:00 UTC,2444535.312500,27.9056,-93.7647,0520,27.1000
1980-10-22 19:50:00 UTC,2444535.326389,27.9056,-93.7647,0520,27.1000
1980-10-22 20:10:00 UTC,2444535.340278,27.9056,-93.7647,0520,27.1000
1980-10-22 20:30:00 UTC,2444535.354167,27.9056,-93.7647,0520,27.1000
1980-10-22 20:50:00 UTC,2444535.368056,27.9056,-93.7647,0520,27.1000
1980-10-22 21:10:00 UTC,2444535.381944,27.9056,-93.7647,0520,27.1000
1980-10-22 21:30:00 UTC,2444535.395833,27.9056,-93.7647,0520,27.1000
1980-10-22 21:50:00 UTC,2444535.409722,27.9056,-93.7647,0520,27.1000
1980-10-22 22:10:00 UTC,2444535.423611,27.9056,-93.7647,0520,27.1000
1980-10-22 22:30:00 UTC,2444535.437500,27.9056,-93.7647,0520,27.1000
1980-10-22 22:50:00 UTC,2444535.451389,27.9056,-93.7647,0520,27.1000
1980-10-22 23:10:00 UTC,2444535.465278,27.9056,-93.7647,0520,27.1000
1980-10-22 23:30:00 UTC,2444535.479167,27.9056,-93.7647,0520,27.1000
1980-10-22 23:50:00 UTC,2444535.493056,27.9056,-93.7647,0520,27.1000
1980-10-23 00:10:00 UTC,2444535.506944,27.9056,-93.7647,0520,27.3000
1980-10-23 00:30:00 UTC,2444535.520833,27.9056,-93.7647,0520,27.3000
1980-10-23 00:50:00 UTC,2444535.534722,27.9056,-93.7647,0520,27.3000
1980-10-23 01:10:00 UTC,2444535.548611,27.9056,-93.7647,0520,27.3000
1980-10-23 01:30:00 UTC,2444535.562500,27.9056,-93.7647,0520,27.3000
1980-10-23 01:50:00 UTC,2444535.576389,27.9056,-93.7647,0520,27.3000
1980-10-23 02:10:00 UTC,2444535.590278,27.9056,-93.7647,0520,27.3000
1980-10-23 02:30:00 UTC,2444535.604167,27.9056,-93.7647,0520,27.3000
1980-10-23 02:50:00 UTC,2444535.618056,27.9056,-93.7647,0520,27.3000
1980-10-23 03:10:00 UTC,2444535.631944,27.9056,-93.7647,0520,27.1000
1980-10-23 03:30:00 UTC,2444535.645833,27.9056,-93.7647,0520,27.1000
1980-10-23 03:50:00 UTC,2444535.659722,27.9056,-93.7647,0520,27.1000
1980-10-23 04:10:00 UTC,2444535.673611,27.9056,-93.7647,0520,27.1000
1980-10-23 04:30:00 UTC,2444535.687500,27.9056,-93.7647,0520,27.1000
1980-10-23 04:50:00 UTC,2444535.701389,27.9056,-93.7647,0520,27.1000
1980-10-23 05:10:00 UTC,2444535.715278,27.9056,-93.7647,0520,27.0000
1980-10-23 05:30:00 UTC,2444535.729167,27.9056,-93.7647,0520,26.8000
1980-10-23 05:50:00 UTC,2444535.743056,27.9056,-93.7647,0520,26.6000
1980-10-23 06:10:00 UTC,2444535.756944,27.9056,-93.7647,0520,26.5000
1980-10-23 06:30:00 UTC,2444535.770833,27.9056,-93.7647,0520,26.6000
1980-10-23 06:50:00 UTC,2444535.784722,27.9056,-93.7647,0520,26.6000
1980-10-23 07:10:00 UTC,2444535.798611,27.9056,-93.7647,0520,26.5000
1980-10-23 07:30:00 UTC,2444535.812500,27.9056,-93.7647,0520,26.1000
1980-10-23 07:50:00 UTC,2444535.826389,27.9056,-93.7647,0520,26.3000
1980-10-23 08:10:00 UTC,2444535.840278,27.9056,-93.7647,0520,26.5000
1980-10-23 08:30:00 UTC,2444535.854167,27.9056,-93.7647,0520,26.3000
1980-10-23 08:50:00 UTC,2444535.868056,27.9056,-93.7647,0520,26.3000
1980-10-23 09:10:00 UTC,2444535.881944,27.9056,-93.7647,0520,26.6000
1980-10-23 09:30:00 UTC,2444535.895833,27.9056,-93.7647,0520,26.5000
1980-10-23 09:50:00 UTC,2444535.909722,27.9056,-93.7647,0520,26.1000
1980-10-23 10:10:00 UTC,2444535.923611,27.9056,-93.7647,0520,26.3000
1980-10-23 10:30:00 UTC,2444535.937500,27.9056,-93.7647,0520,26.5000
1980-10-23 10:50:00 UTC,2444535.951389,27.9056,-93.7647,0520,26.8000
1980-10-23 11:10:00 UTC,2444535.965278,27.9056,-93.7647,0520,26.6000
1980-10-23 11:30:00 UTC,2444535.979167,27.9056,-93.7647,0520,27.1000
1980-10-23 11:50:00 UTC,2444535.993056,27.9056,-93.7647,0520,27.1000
1980-10-23 12:10:00 UTC,2444536.006944,27.9056,-93.7647,0520,27.3000
1980-10-23 12:30:00 UTC,2444536.020833,27.9056,-93.7647,0520,27.0000
1980-10-23 12:50:00 UTC,2444536.034722,27.9056,-93.7647,0520,27.1000
1980-10-23 13:10:00 UTC,2444536.048611,27.9056,-93.7647,0520,27.3000
1980-10-23 13:30:00 UTC,2444536.062500,27.9056,-93.7647,0520,27.1000
1980-10-23 13:50:00 UTC,2444536.076389,27.9056,-93.7647,0520,27.1000
1980-10-23 14:10:00 UTC,2444536.090278,27.9056,-93.7647,0520,27.0000
1980-10-23 14:30:00 UTC,2444536.104167,27.9056,-93.7647,0520,27.0000
1980-10-23 14:50:00 UTC,2444536.118056,27.9056,-93.7647,0520,26.6000
1980-10-23 15:10:00 UTC,2444536.131944,27.9056,-93.7647,0520,26.1000
1980-10-23 15:30:00 UTC,2444536.145833,27.9056,-93.7647,0520,25.8000
1980-10-23 15:50:00 UTC,2444536.159722,27.9056,-93.7647,0520,25.6000
1980-10-23 16:10:00 UTC,2444536.173611,27.9056,-93.7647,0520,25.6000
1980-10-23 16:30:00 UTC,2444536.187500,27.9056,-93.7647,0520,25.8000
1980-10-23 16:50:00 UTC,2444536.201389,27.9056,-93.7647,0520,25.6000
1980-10-23 17:10:00 UTC,2444536.215278,27.9056,-93.7647,0520,25.6000
1980-10-23 17:30:00 UTC,2444536.229167,27.9056,-93.7647,0520,25.5000
1980-10-23 17:50:00 UTC,2444536.243056,27.9056,-93.7647,0520,25.5000
1980-10-23 18:10:00 UTC,2444536.256944,27.9056,-93.7647,0520,25.5000
1980-10-23 18:30:00 UTC,2444536.270833,27.9056,-93.7647,0520,25.5000
1980-10-23 18:50:00 UTC,2444536.284722,27.9056,-93.7647,0520,25.3000
1980-10-23 19:10:00 UTC,2444536.298611,27.9056,-93.7647,0520,25.3000
1980-10-23 19:30:00 UTC,2444536.312500,27.9056,-93.7647,0520,25.6000
1980-10-23 19:50:00 UTC,2444536.326389,27.9056,-93.7647,0520,25.6000
1980-10-23 20:10:00 UTC,2444536.340278,27.9056,-93.7647,0520,25.6000
1980-10-23 20:30:00 UTC,2444536.354167,27.9056,-93.7647,0520,25.6000
1980-10-23 20:50:00 UTC,2444536.368056,27.9056,-93.7647,0520,26.1000
1980-10-23 21:10:00 UTC,2444536.381944,27.9056,-93.7647,0520,26.6000
1980-10-23 21:30:00 UTC,2444536.395833,27.9056,-93.7647,0520,26.6000
1980-10-23 21:50:00 UTC,2444536.409722,27.9056,-93.7647,0520,26.8000
1980-10-23 22:10:00 UTC,2444536.423611,27.9056,-93.7647,0520,27.0000
1980-10-23 22:30:00 UTC,2444536.437500,27.9056,-93.7647,0520,27.1000
1980-10-23 22:50:00 UTC,2444536.451389,27.9056,-93.7647,0520,26.8000
1980-10-23 23:10:00 UTC,2444536.465278,27.9056,-93.7647,0520,27.0000
1980-10-23 23:30:00 UTC,2444536.479167,27.9056,-93.7647,0520,27.0000
1980-10-23 23:50:00 UTC,2444536.493056,27.9056,-93.7647,0520,26.6000
1980-10-24 00:10:00 UTC,2444536.506944,27.9056,-93.7647,0520,26.3000
1980-10-24 00:30:00 UTC,2444536.520833,27.9056,-93.7647,0520,26.3000
1980-10-24 00:50:00 UTC,2444536.534722,27.9056,-93.7647,0520,26.3000
1980-10-24 01:10:00 UTC,2444536.548611,27.9056,-93.7647,0520,25.6000
1980-10-24 01:30:00 UTC,2444536.562500,27.9056,-93.7647,0520,25.5000
1980-10-24 01:50:00 UTC,2444536.576389,27.9056,-93.7647,0520,25.5000
1980-10-24 02:10:00 UTC,2444536.590278,27.9056,-93.7647,0520,25.3000
1980-10-24 02:30:00 UTC,2444536.604167,27.9056,-93.7647,0520,25.3000
1980-10-24 02:50:00 UTC,2444536.618056,27.9056,-93.7647,0520,25.1000
1980-10-24 03:10:00 UTC,2444536.631944,27.9056,-93.7647,0520,25.1000
1980-10-24 03:30:00 UTC,2444536.645833,27.9056,-93.7647,0520,25.0000
1980-10-24 03:50:00 UTC,2444536.659722,27.9056,-93.7647,0520,24.8000
1980-10-24 04:10:00 UTC,2444536.673611,27.9056,-93.7647,0520,24.8000
1980-10-24 04:30:00 UTC,2444536.687500,27.9056,-93.7647,0520,24.6000
1980-10-24 04:50:00 UTC,2444536.701389,27.9056,-93.7647,0520,24.6000
1980-10-24 05:10:00 UTC,2444536.715278,27.9056,-93.7647,0520,24.6000
1980-10-24 05:30:00 UTC,2444536.729167,27.9056,-93.7647,0520,24.6000
1980-10-24 05:50:00 UTC,2444536.743056,27.9056,-93.7647,0520,24.6000
1980-10-24 06:10:00 UTC,2444536.756944,27.9056,-93.7647,0520,24.6000
1980-10-24 06:30:00 UTC,2444536.770833,27.9056,-93.7647,0520,24.8000
1980-10-24 06:50:00 UTC,2444536.784722,27.9056,-93.7647,0520,24.6000
1980-10-24 07:10:00 UTC,2444536.798611,27.9056,-93.7647,0520,24.6000
1980-10-24 07:30:00 UTC,2444536.812500,27.9056,-93.7647,0520,24.5000
1980-10-24 07:50:00 UTC,2444536.826389,27.9056,-93.7647,0520,24.6000
1980-10-24 08:10:00 UTC,2444536.840278,27.9056,-93.7647,0520,24.6000
1980-10-24 08:30:00 UTC,2444536.854167,27.9056,-93.7647,0520,25.0000
1980-10-24 08:50:00 UTC,2444536.868056,27.9056,-93.7647,0520,25.0000
1980-10-24 09:10:00 UTC,2444536.881944,27.9056,-93.7647,0520,25.0000
1980-10-24 09:30:00 UTC,2444536.895833,27.9056,-93.7647,0520,24.8000
1980-10-24 09:50:00 UTC,2444536.909722,27.9056,-93.7647,0520,25.8000
1980-10-24 10:10:00 UTC,2444536.923611,27.9056,-93.7647,0520,25.6000
1980-10-24 10:30:00 UTC,2444536.937500,27.9056,-93.7647,0520,25.6000
1980-10-24 10:50:00 UTC,2444536.951389,27.9056,-93.7647,0520,25.8000
1980-10-24 11:10:00 UTC,2444536.965278,27.9056,-93.7647,0520,25.8000
1980-10-24 11:30:00 UTC,2444536.979167,27.9056,-93.7647,0520,26.0000
1980-10-24 11:50:00 UTC,2444536.993056,27.9056,-93.7647,0520,26.1000
1980-10-24 12:10:00 UTC,2444537.006944,27.9056,-93.7647,0520,26.3000
1980-10-24 12:30:00 UTC,2444537.020833,27.9056,-93.7647,0520,26.5000
1980-10-24 12:50:00 UTC,2444537.034722,27.9056,-93.7647,0520,26.6000
1980-10-24 13:10:00 UTC,2444537.048611,27.9056,-93.7647,0520,26.8000
1980-10-24 13:30:00 UTC,2444537.062500,27.9056,-93.7647,0520,26.8000
1980-10-24 13:50:00 UTC,2444537.076389,27.9056,-93.7647,0520,26.8000
1980-10-24 14:10:00 UTC,2444537.090278,27.9056,-93.7647,0520,27.0000
1980-10-24 14:30:00 UTC,2444537.104167,27.9056,-93.7647,0520,27.1000
1980-10-24 14:50:00 UTC,2444537.118056,27.9056,-93.7647,0520,27.1000
1980-10-24 15:10:00 UTC,2444537.131944,27.9056,-93.7647,0520,27.3000
1980-10-24 15:30:00 UTC,2444537.145833,27.9056,-93.7647,0520,27.1000
1980-10-24 15:50:00 UTC,2444537.159722,27.9056,-93.7647,0520,26.6000
1980-10-24 16:10:00 UTC,2444537.173611,27.9056,-93.7647,0520,27.1000
1980-10-24 16:30:00 UTC,2444537.187500,27.9056,-93.7647,0520,27.3000
1980-10-24 16:50:00 UTC,2444537.201389,27.9056,-93.7647,0520,27.3000
1980-10-24 17:10:00 UTC,2444537.215278,27.9056,-93.7647,0520,27.1000
1980-10-24 17:30:00 UTC,2444537.229167,27.9056,-93.7647,0520,27.1000
1980-10-24 17:50:00 UTC,2444537.243056,27.9056,-93.7647,0520,26.8000
1980-10-24 18:10:00 UTC,2444537.256944,27.9056,-93.7647,0520,26.6000
1980-10-24 18:30:00 UTC,2444537.270833,27.9056,-93.7647,0520,26.3000
1980-10-24 18:50:00 UTC,2444537.284722,27.9056,-93.7647,0520,26.3000
1980-10-24 19:10:00 UTC,2444537.298611,27.9056,-93.7647,0520,26.1000
1980-10-24 19:30:00 UTC,2444537.312500,27.9056,-93.7647,0520,25.6000
1980-10-24 19:50:00 UTC,2444537.326389,27.9056,-93.7647,0520,26.3000
1980-10-24 20:10:00 UTC,2444537.340278,27.9056,-93.7647,0520,25.8000
1980-10-24 20:30:00 UTC,2444537.354167,27.9056,-93.7647,0520,25.6000
1980-10-24 20:50:00 UTC,2444537.368056,27.9056,-93.7647,0520,25.8000
1980-10-24 21:10:00 UTC,2444537.381944,27.9056,-93.7647,0520,25.8000
1980-10-24 21:30:00 UTC,2444537.395833,27.9056,-93.7647,0520,26.1000
1980-10-24 21:50:00 UTC,2444537.409722,27.9056,-93.7647,0520,26.0000
1980-10-24 22:10:00 UTC,2444537.423611,27.9056,-93.7647,0520,26.3000
1980-10-24 22:30:00 UTC,2444537.437500,27.9056,-93.7647,0520,26.5000
1980-10-24 22:50:00 UTC,2444537.451389,27.9056,-93.7647,0520,25.8000
1980-10-24 23:10:00 UTC,2444537.465278,27.9056,-93.7647,0520,26.0000
1980-10-24 23:30:00 UTC,2444537.479167,27.9056,-93.7647,0520,26.3000
1980-10-24 23:50:00 UTC,2444537.493056,27.9056,-93.7647,0520,26.3000
1980-10-25 00:10:00 UTC,2444537.506944,27.9056,-93.7647,0520,26.8000
1980-10-25 00:30:00 UTC,2444537.520833,27.9056,-93.7647,0520,26.6000
1980-10-25 00:50:00 UTC,2444537.534722,27.9056,-93.7647,0520,26.1000
1980-10-25 01:10:00 UTC,2444537.548611,27.9056,-93.7647,0520,26.6000
1980-10-25 01:30:00 UTC,2444537.562500,27.9056,-93.7647,0520,26.6000
1980-10-25 01:50:00 UTC,2444537.576389,27.9056,-93.7647,0520,26.1000
1980-10-25 02:10:00 UTC,2444537.590278,27.9056,-93.7647,0520,26.6000
1980-10-25 02:30:00 UTC,2444537.604167,27.9056,-93.7647,0520,26.8000
1980-10-25 02:50:00 UTC,2444537.618056,27.9056,-93.7647,0520,26.6000
1980-10-25 03:10:00 UTC,2444537.631944,27.9056,-93.7647,0520,26.6000
1980-10-25 03:30:00 UTC,2444537.645833,27.9056,-93.7647,0520,26.6000
1980-10-25 03:50:00 UTC,2444537.659722,27.9056,-93.7647,0520,26.5000
1980-10-25 04:10:00 UTC,2444537.673611,27.9056,-93.7647,0520,25.8000
1980-10-25 04:30:00 UTC,2444537.687500,27.9056,-93.7647,0520,25.8000
1980-10-25 04:50:00 UTC,2444537.701389,27.9056,-93.7647,0520,25.6000
1980-10-25 05:10:00 UTC,2444537.715278,27.9056,-93.7647,0520,25.5000
1980-10-25 05:30:00 UTC,2444537.729167,27.9056,-93.7647,0520,25.6000
1980-10-25 05:50:00 UTC,2444537.743056,27.9056,-93.7647,0520,25.3000
1980-10-25 06:10:00 UTC,2444537.756944,27.9056,-93.7647,0520,25.3000
1980-10-25 06:30:00 UTC,2444537.770833,27.9056,-93.7647,0520,25.3000
1980-10-25 06:50:00 UTC,2444537.784722,27.9056,-93.7647,0520,25.3000
1980-10-25 07:10:00 UTC,2444537.798611,27.9056,-93.7647,0520,25.5000
1980-10-25 07:30:00 UTC,2444537.812500,27.9056,-93.7647,0520,25.3000
1980-10-25 07:50:00 UTC,2444537.826389,27.9056,-93.7647,0520,25.5000
1980-10-25 08:10:00 UTC,2444537.840278,27.9056,-93.7647,0520,25.3000
1980-10-25 08:30:00 UTC,2444537.854167,27.9056,-93.7647,0520,25.6000
1980-10-25 08:50:00 UTC,2444537.868056,27.9056,-93.7647,0520,25.1000
1980-10-25 09:10:00 UTC,2444537.881944,27.9056,-93.7647,0520,25.3000
1980-10-25 09:30:00 UTC,2444537.895833,27.9056,-93.7647,0520,25.1000
1980-10-25 09:50:00 UTC,2444537.909722,27.9056,-93.7647,0520,25.1000
1980-10-25 10:10:00 UTC,2444537.923611,27.9056,-93.7647,0520,25.1000
1980-10-25 10:30:00 UTC,2444537.937500,27.9056,-93.7647,0520,25.3000
1980-10-25 10:50:00 UTC,2444537.951389,27.9056,-93.7647,0520,25.1000
1980-10-25 11:10:00 UTC,2444537.965278,27.9056,-93.7647,0520,25.1000
1980-10-25 11:30:00 UTC,2444537.979167,27.9056,-93.7647,0520,25.3000
1980-10-25 11:50:00 UTC,2444537.993056,27.9056,-93.7647,0520,25.3000
1980-10-25 12:10:00 UTC,2444538.006944,27.9056,-93.7647,0520,25.6000
1980-10-25 12:30:00 UTC,2444538.020833,27.9056,-93.7647,0520,25.5000